Location: *
(50.5492°N, 7.7469°E)
Time: 19:13:24
(UTC+00:00)

COBE Rocket - Pass Details

Date: 21 October 2019
Orbit: 680 x 782 km, 97.1° (Epoch: 11 November)

Event Time Altitude Azimuth Distance (km) Brightness Sun altitude
Rises 17:11:44 0° 15° (NNE) 3,277 7.0 -8.0°
Reaches altitude 10° 17:14:07 10° 19° (NNE) 2,339 6.3 -8.4°
Maximum altitude 17:19:14 60° 99° (E) 876 4.0 -9.2°
Drops below altitude 10° 17:24:13 10° 180° (S) 2,274 6.5 -10.0°
Sets 17:26:30 0° 184° (S) 3,180 7.3 -10.3°
